Location: Limpsfield
(51.2333°N, 0.0167°E)
Time: 15:01:42
(UTC+00:00)

Daily predictions for brighter satellites

Satellite Brightness Start Highest point End
(mag) Time Altitude Azimuth Time Altitude Azimuth Time Altitude Azimuth
CZ-4B DEB 4.4 20:02:25 10° SSE 20:07:57 79° WSW 20:13:31 10° NNW
Cosmos 2056 Rocket 3.6 20:04:10 10° SSW 20:09:34 81° ESE 20:14:58 10° NNE
CZ-4B R/B 3.3 20:04:37 10° SSE 20:10:17 83° ENE 20:15:57 10° NNW
Cosmos 1833 Rocket 2.7 20:05:00 10° SSW 20:10:32 65° ESE 20:16:06 10° NE
Cosmos 1624 Rocket 4.0 20:07:21 10° SSW 20:12:31 83° ESE 20:17:44 10° NNE
Gbstr 26 Del rocket 3.3 20:08:30 10° WNW 20:13:56 81° SSW 20:18:21 10° ESE
Terra 1.9 20:09:44 10° SSE 20:14:26 88° WSW 20:19:11 10° NNW
Cosmos 2360 Rocket 4.4 20:11:53 10° N 20:15:10 15° NNE 20:18:26 10° ENE
Sich 1 Rocket 3.9 20:12:39 10° SSE 20:16:47 45° E 20:20:58 10° NNE
Cosmos 1900 4.5 20:11:53 10° SW 20:16:52 84° NW 20:21:49 10° NE
SJ 16-02 3.7 20:16:18 10° NW 20:19:28 21° W 20:22:37 10° SSW
MetOp-B 4.4 20:19:42 10° S 20:25:03 76° WSW 20:30:27 10° NNW
USA 229 DEB 4.4 20:17:45 10° NW 20:25:07 65° SW 20:33:14 10° SSE
USA 229 4.4 20:17:48 10° NW 20:25:11 66° SW 20:33:19 10° SSE
CZ-2C R/B 4.4 20:24:32 10° E 20:25:35 12° ENE 20:26:38 10° NE
Cosmos 1743 3.0 20:23:09 10° N 20:25:56 32° ENE 20:28:34 11° SE
SKYMED 3 4.3 20:26:04 10° NNE 20:30:00 72° ESE 20:33:56 10° S
Cosmos 44 Rocket 4.0 20:26:32 10° S 20:31:05 35° ESE 20:35:46 10° NE
ISS -2.1 20:29:36 10° S 20:31:43 16° SE 20:33:50 10° E
Cosmos 2219 Rocket 4.5 20:29:39 10° N 20:32:37 14° NNE 20:35:36 10° NE
Cosmos 1459 Rocket 4.0 20:26:32 10° S 20:32:44 70° E 20:38:52 10° NNE
Cosmos 2100 Rocket 4.0 20:30:04 10° S 20:36:17 80° E 20:42:36 10° NNE
Ariane Rocket 3.8 20:32:21 10° SE 20:36:51 36° ENE 20:41:28 10° N
ATLAS 2AS CENTAUR R/B 3.0 20:32:36 10° SW 20:39:33 77° NW 20:46:25 10° NE
ADEOS 4.0 20:34:27 10° S 20:39:38 65° WSW 20:44:50 10° NNW
Cosmos 2369 4.3 20:35:48 10° NNW 20:41:20 48° NE 20:46:24 12° SE
BREEZE-M DEB (TANK) 3.8 20:38:47 10° W 20:41:31 39° SSW 20:47:10 12° SE
SL-4 R/B 3.2 20:38:26 10° W 20:41:42 27° SW 20:44:44 11° SSE
Spot 2 Rocket 3.5 20:37:40 10° SSE 20:42:41 89° W 20:47:45 10° NNW
Cosmos 2322 Rocket 4.1 20:39:06 10° NNW 20:43:13 20° NE 20:47:20 10° E
Cosmos 2151 Rocket 4.2 20:40:21 10° SSW 20:44:39 60° WNW 20:49:00 10° N
MOS 1-B 4.4 20:40:32 10° SSE 20:46:20 90° ENE 20:52:11 10° NNW
Cosmos 2082 Rocket 3.1 20:41:59 10° SSE 20:46:50 29° ESE 20:51:41 10° NE
Okean 2 Rocket 3.3 20:42:33 10° SSW 20:47:01 75° WNW 20:51:32 10° N
USA 305 2.8 20:43:31 10° WNW 20:47:37 70° NNE 20:51:07 11° E
Cosmos 1626 Rocket 4.5 20:53:15 10° N 20:57:12 33° ENE 21:00:04 16° SE
Cosmos 1607 4.4 20:52:00 10° S 20:57:34 38° ESE 21:03:15 10° NE
Cosmos 2233 Rocket 4.2 20:51:53 10° SSE 20:57:53 53° E 21:03:51 10° NNE
Cosmos 2228 3.3 20:55:36 13° SSE 20:59:05 44° E 21:03:01 10° NNE
USA 186 1.9 20:58:27 13° S 21:00:39 54° W 21:03:21 10° NNW
Timation 1 Rocket 4.3 20:54:59 10° SSW 21:00:58 78° ESE 21:07:00 10° NE
Helios 1A Rocket 4.4 20:58:44 10° N 21:01:32 29° WNW 21:04:19 10° SW
Okean O Rocket 2.0 20:57:43 10° S 21:01:58 62° WSW 21:06:15 10° NNW
Tsikada Rocket 4.0 20:57:18 10° N 21:03:30 70° ENE 21:08:51 14° SSE
Cosmos 1697 Rocket 3.9 21:00:53 10° NW 21:05:59 36° WSW 21:11:03 10° S
CZ-4C R/B 1.7 21:03:59 10° SSW 21:08:10 67° SE 21:13:35 10° NE
Cosmos 1741 Rocket 4.5 21:03:01 10° NNW 21:08:15 59° WSW 21:13:01 12° S
Cosmos 1725 Rocket 4.0 21:02:37 10° S 21:08:55 87° E 21:15:13 10° N
Cosmos 1452 Rocket 3.4 21:04:08 10° SSW 21:09:21 74° ESE 21:14:35 10° NNE
COSMOS 2406 4.4 21:07:29 17° SE 21:10:04 22° ESE 21:14:25 10° NE
SL-16 R/B 3.2 21:05:12 10° NNW 21:10:30 38° NE 21:14:58 14° ESE
ATLAS 3B R/B 3.6 21:07:06 10° NW 21:14:27 48° WSW 21:20:47 13° S
Okean-O 3.4 21:10:41 10° S 21:14:55 48° W 21:19:11 10° NNW
Cosmos 1331 Rocket 4.3 21:13:21 10° SSW 21:18:35 71° WNW 21:23:49 10° NNE
Cosmos 1892 Rocket 4.1 21:15:19 10° NNW 21:19:35 56° W 21:23:28 12° S
CZ-4B R/B 3.3 21:19:07 18° SSE 21:22:38 87° ENE 21:27:28 10° NNW
Cosmos 2333 Rocket 3.1 21:18:03 10° NNW 21:23:26 41° NE 21:27:39 16° ESE
USA 245 4.5 21:18:48 14° S 21:23:57 76° WSW 21:29:49 10° NNW
Cosmos 1455 Rocket 3.4 21:21:02 10° SSW 21:25:25 66° WNW 21:29:50 10° N
Cosmos 1302 Rocket 3.9 21:21:56 10° S 21:27:02 65° ESE 21:32:12 10° NNE
Cosmos 2016 Rocket 4.2 21:21:45 10° SSW 21:28:02 77° W 21:34:17 10° N
Cosmos 1980 Rocket 2.9 21:28:49 10° NW 21:34:16 47° WSW 21:38:33 16° S
CZ-4B R/B 3.0 21:33:11 21° S 21:35:12 52° W 21:38:32 10° NNW
Cosmos 2061 Rocket 4.0 21:29:50 11° S 21:35:47 82° E 21:42:06 10° NNE
Cosmos 1782 3.0 21:32:58 11° SSW 21:36:12 58° WNW 21:39:42 10° N
Cosmos 1544 Rocket 3.8 21:35:33 25° SSE 21:37:47 50° E 21:41:59 10° NNE
Cosmos 724 4.2 21:32:05 10° SSW 21:38:07 78° SE 21:44:02 10° NE
SPOT 3 Rocket 3.9 21:34:29 16° S 21:38:32 62° WSW 21:43:38 10° NNW
NOSS 3-3 (A) 4.0 21:34:26 11° S 21:39:04 44° ESE 21:44:51 10° NE
Cosmos 1933 3.7 21:44:19 32° SE 21:45:28 41° E 21:49:05 10° NNE
Cosmos 2084 Rocket 3.4 21:44:17 10° NW 21:48:28 67° SW 21:50:19 32° SSE
Cosmos 1758 Rocket 3.5 21:47:02 10° NNW 21:51:25 85° W 21:53:42 28° S
Terra 4.4 21:50:29 10° WSW 21:52:40 13° W 21:54:52 10° WNW
Helios 1B rocket 3.4 21:51:52 22° E 21:52:55 26° ENE 21:55:55 10° N
CZ-2C R/B 2.8 21:55:17 33° SW 21:56:02 42° W 21:58:44 10° NNW
Cosmos 1464 Rocket 4.4 21:53:23 25° SE 21:56:31 44° E 22:02:19 10° NNE
Gbstr 26 Del rocket 4.1 21:55:37 10° W 21:59:46 29° SW 22:00:52 26° SSW
Cosmos 2360 Rocket 2.9 21:55:14 10° NNW 22:00:41 45° NE 22:04:14 21° ESE
NOSS 3-3 (C) 3.8 22:02:52 17° SSW 22:06:53 56° SE 22:13:01 10° NE
Cosmos 1825 Rocket 4.1 22:03:33 10° N 22:07:43 44° ENE 22:09:11 32° ESE
ISS -3.8 22:04:43 10° WSW 22:08:01 57° SSE 22:08:15 56° SE
ALOS 2 4.3 22:06:32 16° E 22:08:32 22° ENE 22:11:56 10° N
ARIANE 5 R/B 4.1 22:07:11 19° E 22:09:07 26° ENE 22:12:50 10° N
Geosat 3.9 22:04:07 10° NE 22:09:08 68° ESE 22:12:24 22° SSW
Cosmos 44 Rocket 4.2 22:07:22 10° WSW 22:12:22 53° NW 22:17:29 10° NE
USA 305 2.9 22:09:06 10° WNW 22:12:55 41° SW 22:13:09 41° SSW
BREEZE-M R/B 4.4 22:05:36 10° W 22:15:12 87° S 22:20:52 10° E
Ariane Rocket 4.0 22:12:25 18° SSW 22:15:42 38° W 22:20:26 10° NNW
Cosmos 1602 Rocket 3.5 22:12:46 10° NNW 22:17:05 81° W 22:18:42 38° S
Cosmos 2219 Rocket 3.1 22:12:52 10° NNW 22:18:12 40° NE 22:21:48 19° ESE
DEBRIS 3.9 22:14:41 10° W 22:18:27 77° S 22:32:00 10° E
NOSS 3-4 (A) 3.9 22:14:13 10° NW 22:20:44 73° NE 22:26:01 22° SE
NOSS 3-4 (C) 3.9 22:14:50 10° NW 22:21:22 72° NE 22:26:40 21° ESE
Cosmos 1437 Rocket 2.5 22:21:47 44° SSW 22:22:46 78° WNW 22:26:22 10° N
Cosmos 1461 4.0 22:26:32 24° E 22:26:32 24° E 22:28:38 10° ENE
Cosmos 2151 3.7 22:23:21 10° NNW 22:27:19 45° W 22:28:56 29° SSW
Cosmos 1428 Rocket 4.5 22:22:00 10° N 22:28:17 76° ENE 22:31:20 32° SSE
Cosmos 2322 Rocket 2.3 22:22:38 10° NNW 22:28:18 70° ENE 22:31:03 31° SE
Cosmos 2034 Rocket 4.3 22:27:37 31° SSE 22:30:29 54° E 22:36:39 10° NNE
Cosmos 2082 Rocket 2.8 22:24:56 10° SW 22:30:35 59° NW 22:36:15 10° NNE
ATLAS 2AS CENTAUR R/B 4.4 22:25:13 10° W 22:31:26 34° NNW 22:37:34 10° NE
GRACE-FO 1 4.3 22:30:58 63° S 22:31:29 89° W 22:34:59 10° N
GRACE-FO 2 4.3 22:31:26 63° S 22:31:57 88° W 22:35:27 10° N
Cosmos 220 Rocket 4.0 22:32:36 48° SE 22:33:04 51° ESE 22:37:03 10° NNE
Cosmos 1707 4.3 22:38:21 16° ENE 22:38:21 16° ENE 22:39:26 10° NE
Meteor 1-5 Rocket 4.2 22:31:46 10° NNW 22:37:25 81° W 22:40:03 34° S
Cosmos 1536 4.0 22:34:22 10° NNE 22:37:32 26° ENE 22:38:06 25° E
USA 234 3.5 22:33:20 10° ENE 22:39:35 45° SE 22:42:49 27° SSW
COSMOS 2428 4.4 22:36:38 10° NNW 22:41:26 26° NE 22:46:11 10° E
Cosmos 1607 4.5 22:38:29 10° WSW 22:44:35 60° NW 22:50:50 10° NE
Okean 1-7 Rocket 3.7 22:41:23 10° NNW 22:45:49 68° W 22:47:08 43° SSW
Cosmos 1763 Rocket 4.2 22:45:39 34° SE 22:46:39 37° ESE 22:51:29 10° NE
IKONOS-2 4.5 22:42:35 10° NNE 22:46:43 76° WNW 22:48:04 41° SSW
Cosmos 1503 Rocket 4.0 22:41:53 10° NNW 22:47:08 77° ENE 22:49:02 40° SE
Cosmos 1777 Rocket 3.9 22:42:08 10° NNW 22:47:25 85° WSW 22:49:16 41° SSE
Cosmos 2278 3.8 22:41:43 10° NNW 22:47:25 69° WSW 22:49:38 38° S
Helios 1A 2.8 22:43:46 10° NNE 22:47:42 78° WNW 22:48:44 47° SSW
Cosmos-2242 3.6 22:47:28 36° ESE 22:47:51 37° E 22:51:41 10° NNE
Cosmos 909 Rocket 4.3 22:42:52 10° SW 22:49:08 69° NW 22:55:45 10° NE
Cosmos 990 Rocket 4.2 22:45:21 10° NNW 22:50:28 60° ENE 22:52:30 35° SE
Cosmos 1805 3.6 22:47:41 10° NNW 22:50:47 40° W 22:51:00 40° WSW
COSMOS 2406 3.4 22:49:26 18° SW 22:53:47 75° WNW 22:59:33 10° NNE
Cosmos 1606 Rocket 3.5 22:52:45 46° SSW 22:53:59 82° W 22:58:21 10° N
SL-16 R/B 2.7 22:49:17 10° NW 22:54:45 49° WSW 22:56:47 34° SSW
USA 290 3.8 22:56:48 26° ENE 22:56:48 26° ENE 22:58:37 10° NE
CZ-4C R/B 3.7 22:52:26 10° W 22:56:48 35° NNW 23:02:22 10° NE
Cosmos 1354 Rocket 4.1 22:52:05 10° NNW 22:57:21 67° ENE 22:59:19 38° SE
Cosmos 1486 Rocket 4.2 22:53:57 10° NNW 22:59:09 62° WSW 23:00:50 41° S
Nadezhda 4 Rocket 4.2 22:53:58 10° NNW 22:59:59 60° W 23:02:51 31° SSW
Cosmos 1634 Rocket 4.3 22:57:50 34° SE 23:00:07 50° E 23:06:04 10° NNE
CSL-04 DEB 4.2 23:00:26 58° SW 23:00:40 60° WSW 23:04:14 10° NNW
Cosmos 1766 3.2 22:58:18 10° N 23:01:17 52° ENE 23:01:17 52° ENE
Cosmos 1470 4.0 23:01:21 10° NNE 23:04:03 23° ENE 23:04:12 23° ENE
Cosmos 2098 Rocket 3.9 23:02:09 28° SW 23:04:38 53° WNW 23:09:08 10° N
SeaSat 1 3.6 23:03:54 18° ESE 23:06:58 36° NE 23:11:26 10° NNW
Cosmos 1726 Rocket 3.3 23:06:20 58° SSW 23:07:06 81° WNW 23:11:10 10° N
Cosmos 2333 Rocket 2.8 23:02:25 10° NW 23:07:48 45° WSW 23:09:39 34° SSW
Cosmos 2221 4.1 23:09:57 21° E 23:10:17 21° E 23:13:26 10° NE
Cosmos 1076 Rocket 3.7 23:06:35 10° NNW 23:10:48 60° W 23:11:38 49° SW
Meteor 2-2 Rocket 4.4 23:10:21 41° SSE 23:12:10 60° E 23:17:48 10° NNE
Cosmos 1842 4.5 23:13:51 23° ENE 23:13:51 23° ENE 23:15:51 10° NNE
BREEZE-M DEB (TANK) 3.6 23:08:15 10° W 23:16:51 66° S 23:21:44 10° E
CZ-2C R/B 3.5 23:16:22 25° ESE 23:18:50 40° ENE 23:23:41 10° N
Cosmos 1833 4.3 23:17:41 43° SSE 23:19:12 56° ESE 23:24:43 10° NE
Okean 1 3.8 23:23:58 40° W 23:24:26 43° WNW 23:27:53 10° N
Spot 4 3.8 23:23:21 50° S 23:24:31 71° WSW 23:29:19 10° NNW
Cosmos 2026 Rocket 4.1 23:18:18 10° NNW 23:24:38 69° W 23:27:17 37° SSW
KORONAS-FOTON 4.0 23:25:14 48° ENE 23:25:14 48° ENE 23:28:09 10° NNE
Helios 1B rocket 3.4 23:25:48 27° W 23:25:51 27° W 23:28:55 10° NW
SAR-Lupe-2 3.4 23:26:36 78° N 23:26:36 78° N 23:29:45 10° NNW
Cosmos 1975 3.6 23:24:30 10° N 23:27:57 36° ENE 23:28:17 35° E
Aureole 1 Rocket 3.8 23:24:16 10° NNW 23:29:29 77° ENE 23:32:03 37° SE
Cosmos 2322 4.3 23:26:27 10° NNW 23:32:03 52° NE 23:35:16 24° ESE
Cosmos 2297 Rocket 4.2 23:33:58 12° ESE 23:35:07 13° E 23:37:31 10° ENE
Cosmos 44 3.7 23:30:04 10° NW 23:35:29 68° NE 23:38:07 30° ESE
Cosmos 1271 Rocket 3.4 23:38:07 38° ENE 23:38:07 38° ENE 23:40:54 10° NNE
Cosmos 372 Rocket 4.0 23:36:44 10° NNW 23:41:53 72° ENE 23:43:34 42° SE
RESURS DK-1 3.5 23:38:57 10° NNW 23:42:39 36° NE 23:44:13 25° E
Cosmos 1937 Rocket 4.3 23:38:07 10° NNW 23:43:05 44° ENE 23:45:41 25° ESE
ALOS 2 2.9 23:43:55 48° SW 23:44:34 53° W 23:48:53 10° NNW
Cosmos 2360 Rocket 2.9 23:39:23 10° NW 23:44:38 40° WSW 23:45:58 34° SW
ARIANE 5 R/B 3.2 23:44:33 40° SW 23:45:13 44° W 23:49:30 10° NNW
Meteor 1-11 Rocket 4.3 23:41:28 10° N 23:47:05 51° ENE 23:49:31 31° SE
Meteor 1-26 Rocket 4.4 23:45:25 37° SW 23:47:31 66° WNW 23:53:08 10° N
GP-B 3.5 23:44:14 10° N 23:48:29 49° E 23:49:14 44° ESE
Cosmos 2058 Rocket 3.2 23:48:53 50° SW 23:49:44 63° WNW 23:54:04 10° N
Cosmos 468 Rocket 4.1 23:51:07 48° SSE 23:52:23 64° ESE 23:57:37 10° NNE
